Location: *
(43.7000°S, 168.7000°W)
Time: 14:11:33
(UTC+00:00)

Meteor 2-13 Rocket - Pass Details

Date: 07 July 2020
Orbit: 935 x 958 km, 82.5° (Epoch: 04 August)

Event Time Altitude Azimuth Distance (km) Brightness Sun altitude
Rises 17:31:57 0° 344° (NNW) 3,597 7.5 -13.2°
Reaches altitude 10° 17:34:26 10° 341° (NNW) 2,664 6.8 -12.8°
Maximum altitude 17:40:29 65° 259° (W) 1,047 4.4 -11.8°
Drops below altitude 10° 17:46:40 10° 177° (S) 2,713 6.7 -10.7°
Sets 17:49:14 0° 173° (S) 3,668 7.4 -10.3°
